Flag for Brazil Weather past 2 weeks in Florianópolis, Santa Catarina, Brazil

Now
66 °F

Light rain. Partly sunny.


Feels Like: 66 °F
Forecast: 60 / 67 °F
Wind: 14 mph from Southeast

Location: Florianopolis Aeroporto

Current Time: Sep 4, 2015 at 8:24:14 AM

Latest Report: Sep 4, 2015 at 8:00 AM


Visibility: 5 mi

Pressure: 30.07 "Hg

Humidity: 83%

Dew point: 61 °F

Location of FlorianópolisLocation

Historic Weather in Florianópolis — Graph

°F

Florianópolis temperature yesterday

Maximum temperature yesterday: 68 °F (at 2:00 PM)
Minimum temperature yesterday: 59 °F (at 5:00 AM)
Average temperature yesterday: 63 °F

Past Weeks' High & Low Weather Summary

 TemperatureHumidityPressure
High88 °F (Aug 31, 2:00 PM)100% (Sep 3, 5:00 AM)30.30 "Hg (Sep 3, 5:00 AM)
Low55 °F (Aug 28, 5:00 AM)33% (Aug 31, 2:00 PM)29.80 "Hg (Aug 23, 7:00 AM)
Average66 °F79%30.07 "Hg
* Reported Aug 20 7:00 AM — Sep 4 7:00 AM, Florianópolis, Weather by CustomWeather, © 2015

Note: Actual official high and low records may vary slightly from our data, if they occured in-between our weather recording intervals... More about our weather records

Advertising

Florianópolis weather history for previous 24 hours

 ConditionsComfort  
Time TempWeatherWind HumidityBarometerVisibility
7:00 AM
Fri, Sep 4
64 °FLight rain. Partly sunny.9 mph88%30.04 "Hg5 mi
6:00 AM64 °FLight rain. Partly sunny.15 mph88%30.01 "HgN/A
5:00 AM64 °FLight rain. Passing clouds.13 mph94%29.98 "HgN/A
4:00 AM63 °FLight rain. Passing clouds.3 mph94%29.98 "Hg6 mi
3:00 AM63 °FPassing clouds.9 mph88%29.98 "HgN/A
2:00 AM64 °FPassing clouds.7 mph78%29.98 "HgN/A
1:00 AM63 °FPassing clouds.7 mph83%30.01 "HgN/A
12:00 AM61 °FPassing clouds.No wind94%30.01 "HgN/A
11:00 PM
Thu, Sep 3
61 °FPassing clouds.No wind94%30.01 "HgN/A
10:00 PM64 °FPassing clouds.No wind88%30.01 "HgN/A
9:00 PM64 °FPassing clouds.5 mph88%29.98 "HgN/A
8:00 PM64 °FPassing clouds.2 mph88%29.98 "HgN/A
7:00 PM63 °FPassing clouds.No wind88%29.98 "HgN/A
6:00 PM66 °FPassing clouds.No wind83%29.95 "HgN/A
5:00 PM68 °FBroken clouds.6 mph78%29.95 "HgN/A
4:00 PM68 °FBroken clouds.8 mph78%29.95 "HgN/A
3:00 PM68 °FMostly cloudy.6 mph73%29.95 "HgN/A
2:00 PM68 °FMostly cloudy.6 mph78%29.98 "HgN/A
1:00 PM66 °FMostly cloudy.2 mph78%30.01 "HgN/A
12:00 PM64 °FMostly cloudy.1 mph83%30.04 "HgN/A
11:00 AM63 °FMostly cloudy.3 mph88%30.07 "HgN/A
10:00 AM63 °FPartly sunny.No wind88%30.04 "HgN/A
9:00 AM63 °FMostly cloudy.No wind88%30.07 "HgN/A
8:00 AM63 °FMostly cloudy.No wind88%30.04 "HgN/A
Weather by CustomWeather, © 2015

See weather overviewHow to use our weather pages